John Taylor

Olheiro-Chefe - Leeds United
4 Abr 2027
Domingo
Processo

Personalidade

Adaptabilidade (8) Ambição (10) Controvérsia (14) Lealdade (6) Pressão (14) Profissionalismo (17) Espírito Esportivo (10) Temperamento (13)

Perfil

Estilo de Treinamento Democrático
Licença Nacional A
Determinação 14
Gestão de Pessoas 12
Motivação 5
Disciplina 13
Satisfação no Trabalho
69%
Fadiga
0%
Função Olheiro-Chefe
Salário 22.9K p/s
Contrato 14.03.2029

Desempenho

Comportamento Bom
Eficácia do Treinamento
30%
Desenvolvimento do Jogador
60%
Prevenção de Lesões
55%
Implementação Tática
25%

Eventos Recentes

Participou de uma reunião de recrutamento agora
Recomendou um alvo de transferência agora
Recomendou um alvo de transferência agora
Recomendou um alvo de transferência agora
Avaliou um jogador agora
Avaliou um jogador agora
Avaliou um jogador agora
Avaliou um jogador 7d atrás

Monitorando agora

130
Jogador Clube Status Habilidade Confiança Observado Última observação Último voto
Josh Coburn Millwall Ativo 117 / 110 40% 6 02.04.2027 -
Jean-Luc Morin Tours Ativo 141 / 137 40% 6 02.04.2027 -
Veldin Hodža Rubin Ativo 110 / 118 40% 1 02.04.2027 -
Edoardo Bove Watford Ativo 137 / 123 40% 1 02.04.2027 -
Junior Tchamadeu Stoke City Ativo 130 / 116 40% 2 01.04.2027 -
Damián Puebla Orenburg Ativo 120 / 118 40% 1 01.04.2027 -
Alan Velasco Boca Juniors Ativo 143 / 114 40% 4 30.03.2027 -
Relebohile Mofokeng Orlando Pirates Ativo 115 / 120 40% 2 30.03.2027 -
Sindre Walle Egeli Tottenham Ativo 131 / 128 40% 2 30.03.2027 -
Riyad Idrissi Cagliari Ativo 125 / 132 40% 1 30.03.2027 -
Bobby Clark Derby County Ativo 134 / 125 40% 3 28.03.2027 -
Andrés Gómez Vasco da Gama Ativo 124 / 134 40% 2 27.03.2027 -
Miles Leaburn Wolverhampton Ativo 115 / 120 40% 2 27.03.2027 -
Matheus Alves Lokomotiv Moscow Ativo 120 / 124 40% 2 27.03.2027 -
Richard Koné Queens Park Rangers Ativo 114 / 121 40% 6 25.03.2027 -
Victor Parada Spartak Moscow Ativo 123 / 130 40% 2 25.03.2027 -
Will Lankshear Middlesbrough Ativo 132 / 118 40% 6 24.03.2027 -
Ismaël Koné Sassuolo Ativo 124 / 133 40% 1 24.03.2027 -
Eliesse Ben Seghir Bayer Leverkusen Ativo 137 / 134 40% 1 24.03.2027 -
Marc Guiu Chelsea Ativo 120 / 128 40% 3 21.03.2027 -
Alex Robertson Cardiff City Ativo 117 / 127 40% 2 21.03.2027 -
Cesare Casadei Torino Ativo 144 / 128 40% 1 21.03.2027 -
David Romero Parma Ativo 117 / 125 40% 2 20.03.2027 -
Ignacio Lago Racing Club Ativo 107 / 113 40% 1 20.03.2027 -
Ibrahim Cissoko Zwolle Ativo 127 / 116 40% 2 18.03.2027 -
Adam Obert Cagliari Ativo 120 / 133 40% 1 18.03.2027 -
Mahamadou Doumbia Al-Ittihad Ativo 125 / 134 40% 2 16.03.2027 -
Alex Luna Instituto Ativo 128 / 121 40% 1 16.03.2027 -
Tyreece Campbell Charlton Athletic Ativo 124 / 108 40% 6 14.03.2027 -
Henrik Meister Fiorentina Ativo 114 / 119 40% 2 14.03.2027 -
Agustín Anello Tottenham Ativo 119 / 117 40% 2 13.03.2027 -
Isaac Price West Bromwich Albion Ativo 116 / 127 40% 1 12.03.2027 -
Pedro Zenit Ativo 135 / 126 40% 2 10.03.2027 -
Giovane Napoli Ativo 124 / 134 40% 1 10.03.2027 -
Exequiel Zeballos Boca Juniors Ativo 127 / 124 40% 8 09.03.2027 -
Nazar Voloshyn Dynamo Kyiv Ativo 140 / 125 40% 1 06.03.2027 -
Saïmon Bouabré Al-Hilal Ativo 129 / 132 40% 2 04.03.2027 -
Gonçalo Oliveira Benfica Ativo 114 / 123 40% 1 04.03.2027 -
Juan Pablo De la Reta Maipú Ativo 106 / 106 40% 1 04.03.2027 -
Oleh Ocheretko Shakhtar Ativo 122 / 143 40% 1 04.03.2027 -
Lorenzo Ignacchiti Empoli Ativo 118 / 116 40% 1 01.03.2027 -
Nicolò Fagioli Fiorentina Ativo 144 / 140 40% 1 11.01.2027 -
Michel Ndary Adopo Cagliari Ativo 126 / 135 40% 1 11.01.2027 -
Igoh Ogbu Racing Genk Negociando 146 / 146 66% 1 01.01.2027 Aprovar
Iván Martín Racing Club Ativo 143 / 143 66% 1 01.01.2027 Aprovar
Roberto Alvarado Guadalajara Ativo 139 / 139 66% 1 01.01.2027 Aprovar
Matvii Ponomarenko Dynamo Kyiv Ativo 127 / 110 40% 1 29.12.2026 -
Felipe Augusto Zenit Ativo 125 / 125 40% 11 28.12.2026 -
Gorka Gorosabel Real Sociedad Ativo 110 / 109 40% 2 27.12.2026 -
Facundo Kalinger Huracán Ativo 121 / 96 40% 1 27.12.2026 -
Andri Guðjohnsen Blackburn Rovers Ativo 111 / 117 40% 4 22.12.2026 -
Alexander Røssing-Lelesiit Hamburger SV Ativo 105 / 122 40% 2 22.12.2026 -
Suleman Sani RB Leipzig Ativo 130 / 123 40% 2 22.12.2026 -
Tiago Freitas Benfica Ativo 118 / 106 40% 3 21.12.2026 -
Salem Al Kamali Al Jazira Ativo 100 / 122 40% 2 19.12.2026 -
Thiago Almada River Plate Ativo 141 / 154 40% 2 18.12.2026 -
Ngal'Ayel Mukau LOSC Lille Ativo 129 / 135 40% 1 18.12.2026 -
Derry Scherhant SC Freiburg Ativo 126 / 134 40% 4 15.12.2026 -
Bart van Rooij Twente Ativo 126 / 133 40% 1 15.12.2026 -
Ignacio Perruzzi San Lorenzo Ativo 107 / 133 40% 1 12.12.2026 -
Arkaitz Mariezkurrena Real Sociedad Perdido 121 / 128 40% 5 10.12.2026 -
Fabrizio Sartori Independiente Rivadavia Ativo 114 / 126 40% 1 10.12.2026 -
Talles Magno New York City Ativo 143 / 117 40% 8 08.12.2026 -
Ajay Matthews Millwall Ativo 105 / 113 40% 1 05.12.2026 -
Maksim Samorodov Akhmat Grozny Ativo 128 / 128 40% 1 03.12.2026 -
Bruno Damiani Philadelphia Union Ativo 105 / 116 40% 1 02.12.2026 -
Vladislav Blănuţă Lechia Ativo 105 / 123 40% 2 01.12.2026 -
Gonzalo Plata Dinamo Moscow Ativo 122 / 135 40% 1 28.11.2026 -
Pavel Meleshin Sochi Ativo 101 / 132 40% 1 22.11.2026 -
Louis Munteanu DC United Ativo 135 / 141 40% 5 19.11.2026 -
Romeo Vermant Club Brugge Ativo 127 / 114 40% 3 18.11.2026 -
Matheus Gonçalves Al-Ahli Ativo 104 / 134 40% 3 18.11.2026 -
Ante Matej Jurić HNK Rijeka Ativo 118 / 132 40% 1 18.11.2026 -
Alysson Edward Aston Villa Ativo 109 / 141 40% 1 18.11.2026 -
Luís Guilherme Sporting CP Ativo 121 / 123 40% 1 14.11.2026 -
Tobias Bech AGF Ativo 143 / 125 40% 4 13.11.2026 -
Maurits Kjærgaard Red Bull Salzburg Ativo 128 / 141 40% 3 10.11.2026 -
Matyáš Vojta Sparta Prague Ativo 114 / 128 40% 2 10.11.2026 -
Christopher Bonsu Baah Al-Qadisiyah Ativo 117 / 141 40% 1 08.11.2026 -
Dion Beljo Dinamo Zagreb Ativo 115 / 148 40% 2 05.11.2026 -
Wisdom Mike Club Brugge Ativo 98 / 125 40% 1 05.11.2026 -
Nikolaus Wurmbrand Brighton Ativo 106 / 131 40% 1 04.11.2026 -
Žan Vipotnik Swansea City Ativo 116 / 116 40% 2 01.11.2026 -
Roger Ibañez Al-Ahli Ativo 164 / 166 40% 1 31.10.2026 -
Yoshan Valois Lanús Ativo 102 / 131 40% 4 29.10.2026 -
Simphiwe Selepe Orlando Pirates Ativo 119 / 113 40% 1 29.10.2026 -
Aral Şimşir Trabzonspor Ativo 134 / 131 40% 4 27.10.2026 -
Bertuğ Yıldırım Basaksehir Ativo 116 / 105 40% 1 23.10.2026 -
Yota Komi Kashiwa Reysol Ativo 128 / 118 40% 2 22.10.2026 -
Asahi Uenaka Gamba Osaka Ativo 137 / 119 40% 3 16.10.2026 -
Petter Nosa Dahl Rapid Wien Ativo 132 / 133 40% 4 13.10.2026 -
Kevin Kelsy Portland Timbers Ativo 99 / 108 40% 3 12.10.2026 -
Myron van Brederode KV Mechelen Ativo 114 / 125 40% 1 12.10.2026 -
Joe Willock Newcastle United Ativo 134 / 129 40% 1 10.10.2026 -
İsmail Yüksek Fenerbahce Ativo 144 / 145 40% 1 10.10.2026 -
Batista Mendy Trabzonspor Ativo 137 / 128 40% 2 09.10.2026 -
Nicolò Tresoldi Club Brugge Ativo 139 / 137 40% 3 07.10.2026 -
Tristan Degreef Anderlecht Ativo 132 / 127 40% 3 04.10.2026 -
Manfred Ugalde Spartak Moscow Ativo 148 / 117 40% 3 03.10.2026 -
Jeong Sang-Bin St. Louis CITY SC Ativo 103 / 116 40% 2 03.10.2026 -
Esequiel Barco Spartak Moscow Ativo 145 / 151 40% 1 03.10.2026 -
Marezi Portsmouth Ativo 107 / 112 40% 2 02.10.2026 -
Chihiro Konagaya Albirex Niigata Ativo 96 / 128 40% 1 02.10.2026 -
José Paradela Cruz Azul Perdido 150 / 143 40% 1 28.09.2026 Mais informações
Bitello Dinamo Moscow Ativo 122 / 116 40% 1 26.09.2026 -
Michy Fellaini KV Oostende Ativo 122 / 146 40% 2 24.09.2026 -
Husain Norchayev Navbahor Ativo 107 / 135 40% 1 21.09.2026 -
Ollie Scarles West Ham United Ativo 141 / 125 40% 2 20.09.2026 -
Robert FC Copenhagen Ativo 137 / 132 40% 1 15.09.2026 -
Nicolás Fernández Mercau New York City Ativo 127 / 142 40% 1 15.09.2026 -
Gedson Fernandes Spartak Moscow Ativo 152 / 129 40% 1 15.09.2026 -
Mohamed-Ali Cho Hull City Ativo 136 / 126 40% 3 09.09.2026 -
Enis Destan Konyaspor Ativo 102 / 134 40% 1 08.09.2026 -
Tom Cannon Sheffield United Ativo 114 / 116 40% 2 04.09.2026 -
Iván Fresneda Sporting CP Ativo 126 / 139 40% 1 29.08.2026 -
Luca Langoni New England Revolution Ativo 120 / 147 40% 2 15.08.2026 -
Leo Castledine Middlesbrough Ativo 123 / 143 40% 1 14.08.2026 -
Dor Turgeman New England Revolution Ativo 109 / 137 40% 1 14.08.2026 -
Julio Soler Bournemouth Ativo 126 / 131 40% 1 13.08.2026 -
Caleb Yirenkyi Coventry City Ativo 128 / 139 40% 1 13.08.2026 -
Tobías Andrada River Plate Ativo 125 / 130 40% 1 12.08.2026 -
Ilay Feingold New England Revolution Ativo 116 / 108 40% 1 12.08.2026 -
Joe Gelhardt Hull City Ativo 120 / 141 40% 1 10.08.2026 -
Ibrahim Aliyu Houston Dynamo Ativo 118 / 125 40% 1 10.08.2026 -
Antoine Griezmann Orlando City Ativo 169 / 145 40% 1 04.08.2026 -
Leonardo Campana New England Revolution Ativo 129 / 113 40% 1 04.08.2026 -
Denis Bouanga Los Angeles Football Club Ativo 115 / 139 40% 2 03.08.2026 -
Kyogo Furuhashi LA Galaxy Ativo 109 / 111 40% 1 03.08.2026 -
Myrto Uzuni Austin FC Ativo 143 / 127 40% 1 02.08.2026 -
Mauricio Amaro Atlanta United FC Ativo 118 / 123 40% 1 02.08.2026 -